Terminal Aerodrome Forecast
Issued by NWS Hastings, NE

Home | Current Version | Previous Version | Text Only | Print | Product List | Glossary On
Versions: 1 2 3 4 5 6 7 8 9 10 11 12 13 14 15 16 17 18 19 20 21 22 23 24 25 26
000
FTUS43 KGID 202343
TAFGRI
TAF
KGRI 202343Z 2100/2124 15015KT P6SM SCT100
     FM210200 18010KT P6SM VCTS SCT100CB WS008/20040KT
     FM211300 20010KT P6SM SCT100=

USA.gov is the U.S. government's official web portal to all federal, state and local government web resources and services.